Home   Weather   Cincinnati   Past weeks

Flag for USA Past Weather in Cincinnati, Ohio, USA — Yesterday and Last 2 Weeks

Now
44 °F

Fog.


Feels Like: 44 °F
Forecast: 45 / 77 °F
Wind: No wind

Location: Cincinnati Municipal Airport Lunken Field

Current Time: Apr 28, 2017 at 4:43:09 am

Latest Report: Apr 28, 2017 at 4:04 am


Visibility: 1 mi

Pressure: 29.98 "Hg

Humidity: 100%

Dew Point: 44 °F

Location of CincinnatiLocation

Past Weather in Cincinnati — Graph

°F

Cincinnati Temperature Yesterday

Maximum temperature yesterday: 70 °F (at 12:53 pm)
Minimum temperature yesterday: 49 °F (at 10:53 pm)
Average temperature yesterday: 63 °F

High & Low Weather Summary for the Past Weeks

 TemperatureHumidityPressure
High82 °F (Apr 14, 3:53 pm)100% (Apr 13, 3:33 am)30.37 "Hg (Apr 13, 3:33 am)
Low40 °F (Apr 23, 2:53 am)31% (Apr 13, 4:53 pm)29.54 "Hg (Apr 27, 6:53 am)
Average62 °F78%30.00 "Hg
* Reported Apr 13 3:33 am — Apr 28 3:20 am, Cincinnati, Weather by CustomWeather, © 2017

Note: Actual official high and low records may vary slightly from our data, if they occured in-between our weather recording intervals... More about our weather records

Advertising

Cincinnati Weather History for the Previous 24 Hours

Scroll right to see more
 ConditionsComfort  
Time TempWeatherWind HumidityBarometerVisibility
3:20 am
Fri, Apr 28
46 °FFog.No wind100%29.97 "Hg3 mi
3:03 am47 °FFog.No wind100%29.97 "Hg1 mi
2:33 am47 °FFog.No wind100%29.95 "Hg3 mi
2:23 am47 °FFog.No wind100%29.95 "Hg2 mi
1:53 am47 °FClear.No wind100%29.94 "Hg10 mi
12:53 am49 °FClear.No wind100%29.91 "Hg10 mi
11:53 pm
Thu, Apr 27
50 °FClear.No wind96%29.89 "Hg10 mi
10:53 pm49 °FClear.5 mph100%29.89 "Hg10 mi
9:53 pm53 °FPassing clouds.5 mph86%29.87 "Hg10 mi
8:53 pm57 °FClear.8 mph74%29.83 "Hg10 mi
7:53 pm61 °FPassing clouds.9 mph62%29.81 "Hg10 mi
6:53 pm61 °FPartly sunny.13 mph65%29.80 "Hg10 mi
5:53 pm64 °FScattered clouds.13 mph61%29.78 "Hg10 mi
4:53 pm65 °FPassing clouds.17 mph63%29.75 "Hg10 mi
3:53 pm67 °FBroken clouds.16 mph66%29.72 "Hg10 mi
2:53 pm69 °FBroken clouds.16 mph68%29.68 "Hg10 mi
1:53 pm69 °FBroken clouds.15 mph81%29.65 "Hg10 mi
12:53 pm70 °FPassing clouds.17 mph76%29.62 "Hg10 mi
12:10 pm69 °FBroken clouds.18 mph81%29.63 "Hg10 mi
11:53 am67 °FPartly sunny.15 mph87%29.62 "Hg10 mi
11:37 am67 °FPartly sunny.12 mph90%29.64 "Hg10 mi
10:53 am64 °FRain. Fog.18 mph90%29.62 "Hg3 mi
10:00 am65 °FLight rain. Overcast.14 mph81%29.62 "Hg10 mi
8:53 am68 °FOvercast.No wind73%29.57 "Hg10 mi
7:53 am64 °FPartly sunny.5 mph78%29.57 "Hg10 mi
6:53 am67 °FPartly sunny.6 mph63%29.54 "Hg10 mi
5:53 am66 °FPassing clouds.10 mph65%29.58 "Hg10 mi
4:53 am67 °FOvercast.9 mph79%29.57 "Hg10 mi
Weather by CustomWeather, © 2017

See weather overviewHow to use our weather pages